SHIELDS 1 (43850 NORAD) Tracking and Keplerian Element Data

This shows tracking and keplerian element data for the satellite.

Feedback or suggestion? Click here.




ElementValue
Catalog43850
NameSHIELDS 1
Epoch Orbit3273
Epoch Day200.69783711
Epoch Year2019
RAAN35.9588
Inclination85.0254
Eccentricity0.0013616
Argument of Perigee208.4589
Mean Anonmoly151.5893
Mean Motion15.21098631
Decay Rate4.1E-07
L11 43850U 18104B 19200.69783711 .00000041 00000-0 00000-0 0 9993
L22 43850 85.0254 35.9588 0013616 208.4589 151.5893 15.21098631 32730

Live tracking and technical data element details for SHIELDS 1 (NORAD 43850). SHIELDS 1 can be tracked NOW for your location showing map with azimuth and elevation plus other details from your city location.

Track the satellite on the map from your city or location and see movement details for azimuth, elevation, latitude, longitude, range, height, and movement on the map or in text.







IsCatalogInMostPopularTable: catalog: 43850, numindb: 80
Update: records affected: 1



GetName: 43850 SHIELDS 1

Hit Count: updated at: Sat, 20 Jul 2019 22:33:39 GMT